Wind_Speed
11 12 13 14 15 17 17 17 16 16 17 17 17 17 17 17 17 16 15 15 16 17 18 18 16 14 13 13 13 13 13 11 8 9 8 5 4 4 3 3 3 3 3 4 4 4 4 4 6 9 11 15 17 18 20 21 23 25 26 27 28 27 25 24 25 27 27 28 28 28 28 28 28 27 26 26 27 27 26 26 25 24 24 24 23
11 12 13 14 15 16 15 15 15 15 15 16 17 17 17 17 16 15 13 13 14 15 14 10 9 9 8 8 9 10 10 9 7 8 8 5 5 5 5 4 4 3 4 5 5 5 5 6 7 8 11 14 16 18 21 23 23 24 27 28 29 28 26 26 26 27 27 28 29 29 28 28 28 27 26 27 27 27 27 26 25 24 24 24 24
12 12 13 15 15 15 14 14 14 14 16 17 17 17 16 16 15 13 12 12 13 13 10 5 3 2 3 3 5 8 9 8 7 7 7 6 5 5 5 4 4 4 4 5 5 6 6 8 8 9 11 13 15 18 21 23 23 24 26 28 29 28 27 27 26 26 28 28 29 29 29 28 28 27 26 27 27 27 27 27 26 24 24 23 23
13 13 15 15 15 14 14 14 14 15 16 16 16 15 15 13 12 11 11 11 12 12 8 4 4 2 3 4 5 7 8 8 8 7 7 6 5 5 4 3 3 2 3 4 5 6 7 8 8 8 11 13 14 17 20 22 23 24 26 28 30 30 29 28 27 28 29 29 30 30 29 28 28 27 27 27 27 28 28 27 26 24 23 23 22
13 14 15 14 13 13 14 14 14 15 15 16 15 14 13 11 9 9 10 10 10 10 7 5 4 4 5 4 5 7 9 9 8 8 6 5 4 4 3 2 1 1 2 3 4 6 7 7 8 8 9 12 13 16 20 22 22 24 26 28 31 32 32 31 30 30 30 29 31 31 30 29 28 28 27 27 28 28 28 27 26 24 23 23 22
13 15 14 12 12 12 13 14 14 14 14 14 13 12 11 9 8 8 9 9 8 8 7 7 6 6 5 5 6 9 10 9 8 7 6 6 5 4 2 1 1 1 2 3 4 6 7 6 8 9 9 10 13 15 19 22 22 24 26 29 32 33 34 34 33 32 31 31 31 31 31 30 29 29 28 28 28 28 27 27 26 25 25 24 22
13 13 11 11 11 13 13 14 14 13 13 12 11 11 10 9 8 8 8 7 6 7 8 8 7 7 6 6 7 8 9 8 7 6 6 6 5 3 1 1 2 3 3 4 4 6 7 7 9 10 10 10 12 14 18 20 22 24 26 29 31 32 34 35 34 33 32 32 32 32 32 30 30 29 28 28 28 27 27 27 26 26 26 24 22
11 9 9 10 11 12 12 13 13 13 12 11 10 10 10 9 8 8 7 6 5 6 7 8 8 7 7 7 7 7 7 7 6 5 4 4 3 2 1 1 2 5 5 4 5 7 8 8 9 11 10 11 11 13 16 18 21 23 25 28 29 31 34 34 34 33 32 32 32 33 33 31 30 29 28 28 27 26 26 26 26 27 26 24 23
8 7 8 10 10 11 11 11 12 12 12 12 10 9 9 9 9 8 7 6 6 6 6 7 8 7 6 6 6 6 5 5 5 4 3 2 2 2 2 2 3 5 6 5 6 7 8 9 10 11 11 12 11 12 14 17 19 21 24 27 27 29 34 35 35 33 32 33 33 33 33 31 31 30 30 29 28 26 25 25 26 27 26 25 24
6 7 8 9 9 9 10 11 12 13 13 12 11 10 8 7 8 8 8 6 5 6 6 6 6 6 5 5 5 5 4 3 3 3 2 2 2 2 3 3 4 5 6 6 7 8 9 10 11 11 11 12 11 11 13 15 18 19 22 26 26 28 34 37 38 36 34 34 34 33 33 32 32 32 31 31 29 27 25 24 25 26 26 25 24
6 7 8 8 8 10 11 11 13 14 14 14 13 12 10 7 6 6 7 7 5 4 5 6 6 5 5 4 5 5 4 3 3 3 2 1 2 3 3 4 5 6 6 7 8 9 10 11 11 11 11 11 11 12 12 13 16 18 21 24 26 30 36 37 38 36 34 34 34 33 33 32 32 33 33 33 31 29 27 24 24 25 26 26 25
6 6 7 8 9 10 11 12 14 15 15 14 13 12 11 9 6 5 5 6 6 5 2 3 4 5 4 3 3 4 4 4 4 4 2 2 4 4 4 5 6 7 8 8 9 9 10 11 12 11 11 11 12 12 12 12 14 17 19 23 26 30 35 36 34 32 32 34 32 31 32 32 33 34 34 34 33 31 29 27 25 25 25 26 26
5 6 7 8 10 11 11 12 14 14 14 13 12 11 11 10 8 6 5 5 5 6 5 2 1 3 3 2 2 3 3 3 4 4 3 4 6 6 5 6 7 8 9 9 10 10 11 11 12 11 10 10 11 11 11 11 13 16 18 21 25 29 34 35 34 34 34 34 31 31 32 31 32 34 33 34 33 32 31 30 28 27 25 25 25
5 6 8 9 10 11 11 12 13 13 13 13 13 12 10 9 8 7 5 5 5 5 5 5 3 2 2 1 1 3 3 3 3 4 5 7 8 8 9 9 9 9 10 11 11 11 11 12 12 11 10 10 10 10 10 10 12 15 16 19 22 27 33 34 34 35 35 34 31 32 32 31 32 33 33 33 33 32 32 32 31 29 26 25 24
4 6 8 8 9 11 12 12 12 12 13 13 13 13 11 9 7 7 6 4 5 4 4 4 4 2 2 2 2 4 4 4 5 7 8 9 9 10 11 11 11 11 11 12 12 11 11 12 12 11 11 10 9 10 10 9 11 13 15 17 19 24 31 33 34 33 33 33 32 31 30 30 32 33 32 32 33 32 33 33 32 31 28 26 25
4 6 7 7 9 11 12 13 12 12 11 12 12 12 11 9 6 6 5 4 3 2 2 3 3 4 4 4 4 5 6 7 7 8 10 11 11 12 12 12 11 10 11 12 13 12 11 11 11 11 11 10 9 9 9 9 9 12 14 15 17 22 27 30 32 31 30 30 30 29 29 29 31 32 32 32 31 32 32 33 33 32 30 28 26
4 6 6 6 8 10 12 13 13 12 10 10 12 11 10 9 7 6 6 5 3 2 3 4 4 6 7 7 8 8 9 9 9 10 11 12 13 14 13 12 10 8 9 11 12 12 11 10 10 11 10 9 9 9 9 9 8 12 13 14 16 21 25 28 30 30 31 31 30 29 28 28 30 32 32 31 30 31 32 33 33 33 31 29 28
4 5 5 6 7 9 12 13 13 13 11 10 11 12 11 8 7 6 5 6 4 2 3 4 5 7 9 9 10 11 11 11 10 10 9 10 11 13 13 11 10 8 8 9 10 11 11 10 10 11 10 9 9 9 9 9 7 11 13 13 15 21 25 28 30 30 32 34 32 29 27 28 30 32 32 31 30 31 32 33 34 34 33 31 29
3 4 4 7 9 10 11 13 14 15 13 11 10 11 10 8 7 6 5 5 4 3 3 3 5 7 8 9 10 11 12 11 11 9 8 8 9 12 14 13 11 10 8 7 8 9 9 9 10 11 11 10 9 8 8 8 6 10 13 13 15 19 23 26 29 30 31 33 31 28 26 28 30 32 31 30 30 31 33 34 35 35 34 33 31
3 4 5 8 10 10 11 13 15 15 14 12 10 9 9 8 7 6 4 4 4 3 3 3 4 6 6 8 10 11 12 12 12 10 9 10 10 12 15 14 12 11 8 7 8 9 8 8 9 9 11 11 9 8 7 7 6 9 13 14 15 19 22 24 28 29 29 30 29 26 26 28 30 31 31 30 30 32 34 34 35 35 34 33 33
4 4 6 9 10 10 12 14 15 15 14 13 11 9 8 9 8 7 5 3 3 2 3 4 5 7 7 8 10 10 11 12 12 10 9 10 11 12 15 15 12 11 10 9 9 10 10 9 8 8 9 10 9 8 7 7 6 7 12 15 16 18 20 23 26 27 27 27 27 27 28 29 30 31 32 32 31 32 35 36 36 35 35 34 34
4 5 7 9 10 11 13 15 16 16 15 14 12 9 8 8 8 7 6 4 3 2 3 4 7 9 8 8 9 10 10 10 10 9 8 10 11 12 15 16 14 13 13 12 11 13 14 12 10 9 9 10 9 9 8 7 5 6 10 14 17 17 18 20 23 25 26 26 28 29 31 31 31 32 33 32 31 33 35 36 36 37 36 35 34
5 6 7 9 10 12 14 16 16 15 14 13 11 9 7 7 7 7 6 5 5 4 3 4 8 10 10 10 10 10 10 10 9 9 9 10 11 12 15 17 17 16 15 14 13 15 17 15 13 11 10 11 10 9 9 8 7 8 9 12 16 17 18 19 22 25 26 27 28 30 29 29 30 31 32 31 30 32 35 36 37 37 37 36 35
5 6 7 9 11 13 15 16 15 13 12 11 10 9 7 7 6 6 6 6 6 6 5 5 7 10 10 10 11 12 11 10 9 9 9 10 10 11 15 18 18 18 17 18 17 17 18 17 16 14 12 13 13 11 10 10 10 10 9 11 15 18 20 20 22 25 27 28 28 28 27 27 29 30 30 30 29 31 34 36 37 37 37 36 34
4 6 7 9 11 14 15 16 15 14 12 11 10 9 8 7 7 6 7 7 6 6 5 5 7 9 9 10 11 12 11 11 9 9 10 11 10 10 13 17 18 18 19 20 20 19 18 18 17 16 15 16 17 15 12 12 12 12 11 12 14 18 21 22 23 25 28 29 27 26 26 27 28 29 30 30 30 31 34 36 36 37 37 36 35
3 4 6 8 11 14 15 15 15 14 13 11 10 9 9 8 8 7 7 7 7 6 5 5 7 8 8 8 9 10 11 11 10 11 12 13 13 11 12 15 17 19 20 21 23 22 19 18 18 18 19 21 20 18 15 13 13 14 13 13 14 16 18 22 24 25 27 27 26 25 25 26 27 29 31 32 33 33 33 34 35 36 36 36 35
2 3 6 9 12 15 15 15 15 14 13 13 11 9 9 8 8 8 8 8 7 7 6 6 7 8 9 9 8 11 12 12 12 13 14 15 16 15 14 15 16 18 20 22 24 24 22 19 19 19 22 24 22 19 17 15 14 13 14 16 15 15 15 19 23 25 25 26 26 25 26 27 28 30 32 34 35 34 34 35 36 35 35 34 34
7 6 7 10 13 15 15 15 15 15 15 14 11 9 8 8 8 8 8 8 8 8 7 7 8 9 10 10 10 12 14 15 14 14 16 18 18 18 17 17 17 18 19 20 23 24 23 21 20 20 22 25 25 22 19 16 13 11 15 19 18 16 16 18 22 23 25 26 26 26 27 28 30 31 33 34 35 35 36 37 37 36 34 33 32
9 11 11 11 14 16 15 14 14 15 16 14 11 8 7 8 9 9 8 8 8 8 6 7 8 9 10 11 11 12 14 15 15 16 18 19 20 20 19 17 16 16 17 19 21 23 24 24 24 22 21 22 24 24 22 16 11 11 16 20 20 20 18 19 21 21 22 25 26 27 28 29 31 32 33 34 34 35 36 37 37 36 35 35 34
6 12 13 12 15 17 15 14 14 15 16 14 10 8 8 9 9 9 9 8 8 8 7 7 9 10 10 11 12 13 14 15 16 17 18 19 19 20 19 18 16 13 13 17 21 24 24 24 24 23 22 22 23 24 25 22 17 16 18 20 20 21 21 19 19 18 18 20 23 25 27 28 30 31 32 33 33 33 34 36 36 36 36 37 36
5 9 11 12 15 16 14 13 14 16 15 13 10 10 10 10 10 9 8 8 8 8 8 8 10 11 11 12 13 14 15 15 16 17 18 19 19 20 20 20 18 15 13 14 18 22 24 24 23 22 22 24 24 23 25 26 24 23 24 24 22 21 22 22 20 18 18 19 20 22 23 24 27 30 32 33 32 32 33 34 35 37 38 39 38
5 7 9 12 15 15 14 14 15 15 14 12 10 11 11 10 9 9 8 8 8 8 8 9 11 12 13 13 14 15 15 15 15 17 18 19 20 20 20 20 19 18 17 16 17 19 22 23 23 21 21 22 24 23 24 26 28 27 28 29 27 24 23 23 23 21 20 20 20 21 21 21 24 27 30 32 32 32 33 34 34 36 38 38 37
6 7 9 12 13 13 14 14 15 14 12 10 11 11 10 9 9 9 8 8 8 9 10 11 12 13 14 15 16 15 15 15 15 15 17 18 19 20 21 20 19 19 19 19 19 19 21 22 22 21 20 19 21 22 23 24 27 28 29 31 31 30 26 23 23 23 22 22 22 22 21 21 23 25 27 29 29 29 30 32 34 36 37 37 37
7 7 9 10 11 12 13 14 14 13 10 9 9 9 9 9 10 10 9 9 9 10 12 13 13 14 15 16 16 16 16 15 15 15 16 17 19 20 21 21 20 20 20 19 19 20 22 23 23 23 22 21 21 22 22 23 25 27 29 31 31 31 29 26 24 23 22 22 24 24 23 23 23 25 26 27 27 26 24 27 30 33 35 37 38
9 8 8 9 10 11 12 13 13 9 7 7 7 8 9 9 10 10 10 10 11 12 13 13 14 16 16 17 17 17 17 16 16 15 16 17 18 19 20 20 20 20 20 20 21 22 24 25 26 26 26 25 25 25 26 26 26 27 29 31 32 32 31 30 28 27 25 23 23 26 27 27 25 26 27 27 28 26 23 22 25 26 26 29 34
10 8 7 7 7 9 11 12 10 6 6 7 7 8 9 9 10 10 11 11 12 13 14 15 16 17 17 18 18 18 18 18 17 17 17 17 18 20 20 20 20 19 19 19 20 22 23 25 27 28 29 29 29 30 31 30 30 30 31 33 36 35 34 34 34 34 33 30 26 25 28 30 29 28 27 28 29 28 24 22 22 21 19 19 23
8 6 5 5 7 9 11 11 8 5 6 8 8 9 8 9 10 11 12 12 12 14 15 16 17 18 19 19 20 20 20 19 19 19 18 19 19 20 21 21 21 20 19 18 16 16 17 18 20 23 25 26 26 27 28 27 28 29 31 33 36 37 38 37 36 35 34 33 30 28 28 31 32 31 29 29 30 30 28 25 23 23 21 18 19
7 5 4 4 6 9 10 10 7 6 8 8 8 8 8 9 10 11 12 13 13 15 17 17 18 19 20 21 21 22 21 20 20 20 19 19 19 19 18 18 17 17 17 16 14 13 13 12 13 15 18 19 19 19 20 21 22 23 25 27 28 30 33 34 33 33 31 30 31 29 28 31 33 33 32 31 32 32 29 24 22 23 24 23 21
5 3 3 4 6 8 9 7 6 6 8 7 7 8 9 10 11 11 13 13 15 16 17 18 19 20 21 23 23 23 22 21 20 18 17 17 16 16 15 14 14 14 14 14 13 13 12 12 12 13 14 15 16 15 15 17 18 19 20 21 22 23 25 27 28 29 29 28 29 28 27 30 33 32 32 33 33 33 31 26 23 23 23 24 24
3 2 2 3 5 7 6 5 5 6 7 7 8 9 10 11 11 11 13 14 16 17 17 18 20 22 24 24 24 23 22 21 19 17 15 14 14 14 13 14 13 13 13 13 13 13 12 12 12 12 12 13 13 12 12 13 15 16 17 18 19 19 20 21 21 21 23 24 26 26 26 30 32 31 31 32 32 32 32 31 28 24 21 22 23
2 2 2 3 5 5 4 4 4 6 7 7 8 9 10 11 11 12 14 15 16 17 18 20 22 24 25 24 24 24 23 21 19 17 15 14 13 13 13 13 14 14 14 14 14 13 13 12 11 11 11 12 12 11 11 12 13 13 14 14 16 17 19 19 18 16 17 19 20 21 23 27 30 30 30 29 29 29 30 30 29 26 24 23 22
2 2 2 3 4 3 4 3 4 6 7 7 8 9 10 11 11 12 14 16 17 17 20 22 23 24 24 23 24 25 23 21 18 16 14 13 13 14 14 15 15 14 14 14 14 13 13 12 11 10 10 11 12 12 11 11 12 12 12 12 13 14 16 18 18 17 16 16 17 17 19 23 28 29 29 28 27 27 27 26 27 27 27 26 24
1 1 1 3 4 3 3 3 4 6 6 7 7 8 10 11 12 13 14 16 17 19 22 23 23 24 24 24 25 24 22 20 17 14 13 13 13 15 15 15 15 15 14 15 15 14 13 12 10 9 9 10 11 12 11 11 11 12 11 11 11 12 13 15 17 17 16 16 16 16 16 19 24 27 29 28 28 27 26 24 23 24 25 26 24
1 1 2 4 5 3 3 3 5 5 6 6 7 9 10 11 12 13 14 16 18 21 23 24 23 23 24 25 25 24 22 19 15 12 12 13 14 16 16 15 16 16 15 15 16 15 14 12 10 9 8 9 9 9 9 10 10 11 11 11 11 12 13 14 16 18 17 16 16 16 16 17 20 24 27 28 28 27 26 25 23 23 24 25 25
1 2 2 4 4 2 2 3 4 5 6 6 7 9 10 12 13 13 14 17 19 21 23 24 23 23 24 25 25 24 21 17 14 12 12 13 15 16 15 15 15 15 14 15 15 14 13 11 9 7 7 7 8 8 8 9 9 10 11 11 12 12 14 15 16 17 18 16 16 17 17 17 17 18 22 25 27 28 27 26 24 23 23 24 24
2 2 1 2 3 1 1 3 5 6 6 6 7 9 10 11 13 14 15 17 19 21 22 23 23 24 25 26 25 23 19 15 14 13 13 14 15 16 15 15 14 14 15 14 12 11 11 9 6 5 5 6 7 8 9 9 10 10 10 11 12 13 14 16 17 18 18 17 16 16 17 18 18 17 17 20 23 25 27 26 25 23 22 22 21
2 2 1 2 3 2 2 4 6 6 6 7 8 9 10 11 13 15 16 18 20 21 22 22 23 24 25 26 25 23 18 16 15 15 15 16 16 16 16 15 14 14 12 10 9 10 11 8 6 5 5 6 6 8 9 9 9 9 9 10 11 11 11 13 15 18 19 18 17 17 17 18 18 18 17 17 19 21 24 25 25 23 22 20 18
2 2 1 3 3 2 3 5 5 5 5 7 8 9 10 12 13 16 17 18 19 20 21 22 23 24 25 26 26 23 19 17 16 16 17 16 16 17 16 14 12 11 9 9 8 9 9 8 7 6 5 6 7 8 9 9 8 8 9 9 9 9 8 9 11 13 16 17 17 17 18 19 18 18 17 17 17 19 21 24 26 26 25 23 19
2 0 2 4 4 2 3 3 3 4 5 7 7 8 10 12 14 15 16 16 18 19 20 21 23 24 25 26 25 23 19 18 18 17 17 17 17 16 15 13 12 11 10 9 9 9 8 8 8 8 7 7 8 9 10 9 9 8 8 8 8 8 8 7 7 8 11 14 16 17 18 19 19 18 18 18 18 18 18 20 23 26 28 28 26
2 2 3 4 3 3 3 3 2 4 5 6 6 8 10 11 13 14 14 16 17 17 19 21 22 24 24 25 25 23 20 19 19 18 18 18 17 15 13 13 12 12 11 10 10 10 10 9 9 9 9 9 9 10 10 9 9 9 8 8 8 8 8 7 6 6 7 10 12 15 17 18 19 19 19 19 19 18 18 18 19 21 24 27 28
3 2 4 5 4 2 3 2 2 3 4 5 6 7 8 10 11 12 14 15 16 17 18 20 21 23 23 24 24 23 20 19 18 18 18 19 17 14 12 12 12 12 12 12 12 13 11 10 10 11 11 10 11 11 11 10 10 9 9 8 8 8 7 6 5 5 6 7 8 11 14 16 18 19 19 19 19 19 18 18 17 17 18 20 22
Wind_Direction
325 324 324 324 321 317 315 314 316 318 318 318 319 320 323 323 320 319 317 317 316 313 307 298 291 284 269 253 241 241 238 218 208 227 230 230 227 217 220 241 249 242 256 266 265 261 253 247 242 238 233 229 229 228 226 224 221 219 218 215 213 212 211 210 209 208 205 202 201 200 201 202 204 204 204 207 210 209 206 205 206 208 208 205 205
321 319 320 318 314 316 320 322 322 322 321 320 322 325 326 326 324 323 323 324 323 321 317 310 299 282 266 255 236 219 213 202 194 214 225 222 209 199 204 224 237 236 248 263 268 271 274 270 259 253 247 237 232 231 227 225 223 221 220 217 213 212 212 210 210 209 207 204 202 201 202 204 206 206 206 208 211 210 207 206 206 209 211 209 207
314 313 316 318 318 321 325 324 325 326 325 324 325 328 330 330 329 328 332 332 330 331 334 350 354 282 235 219 192 185 189 183 181 203 214 209 196 187 192 205 213 226 249 263 271 274 275 276 272 263 257 247 238 236 232 227 226 224 222 220 215 212 213 212 210 210 209 206 202 202 204 205 207 209 210 210 209 209 208 208 207 210 212 211 210
307 311 319 325 327 326 324 325 328 328 325 326 329 332 336 338 337 336 340 341 340 340 345 17 44 87 142 148 150 168 177 168 168 185 194 196 188 175 177 190 198 221 260 274 276 272 268 273 276 266 260 254 243 240 237 231 230 227 223 221 216 210 209 211 210 211 210 206 203 203 204 206 208 210 211 209 207 207 209 210 209 210 210 210 210
306 315 322 328 329 324 324 328 329 326 325 329 335 339 342 346 346 347 349 353 356 355 8 45 72 99 113 126 134 144 149 151 161 167 170 175 174 171 181 198 201 228 282 283 278 277 274 273 275 272 266 258 248 244 240 235 233 231 226 221 217 211 207 208 210 213 211 207 205 204 204 206 207 209 209 207 206 206 209 211 209 209 208 208 209
310 317 321 326 325 324 326 328 326 325 330 335 339 345 348 351 356 358 359 5 17 23 37 61 81 94 100 106 114 123 129 137 147 150 158 168 175 180 192 246 298 329 313 295 288 285 282 278 279 281 275 263 257 251 242 236 233 231 227 222 217 213 210 208 208 210 210 208 206 203 203 206 207 207 206 205 205 205 207 210 209 207 206 207 208
312 314 317 322 324 327 328 326 326 330 335 338 342 352 358 2 7 9 10 21 44 56 61 68 79 88 92 91 99 113 122 130 137 148 164 170 178 188 216 293 317 318 303 300 305 301 294 287 283 282 282 277 269 261 247 239 236 232 228 224 218 215 212 208 206 206 208 208 205 204 203 205 206 206 204 202 202 203 206 208 207 205 204 204 206
309 310 317 324 327 328 328 331 337 340 341 339 341 353 5 11 15 20 27 44 64 75 79 81 82 88 92 90 98 114 124 132 139 150 160 157 170 200 244 294 318 303 294 303 307 304 301 294 287 285 287 286 279 270 258 247 237 230 230 228 222 217 211 208 208 208 208 208 205 204 203 204 206 205 202 201 201 203 206 206 204 202 202 203 204
305 312 322 327 328 329 334 342 347 349 349 346 344 350 3 14 17 19 29 55 77 85 91 93 90 91 97 103 112 126 134 136 143 152 158 165 194 253 271 301 308 293 296 311 308 301 299 295 290 287 285 284 280 272 265 256 242 230 227 230 227 219 212 208 209 209 208 208 207 205 202 202 205 204 202 200 200 203 205 204 203 201 201 202 203
313 323 330 330 331 336 342 347 349 351 353 355 353 351 357 11 19 17 17 32 68 89 98 101 99 101 109 121 129 135 148 148 154 177 189 201 236 273 282 293 290 290 302 311 311 307 302 296 292 287 282 282 280 273 267 258 247 233 225 228 228 221 215 209 206 205 206 208 208 206 201 201 203 203 202 200 200 202 204 205 204 203 202 202 204
327 332 334 335 339 343 343 345 348 350 353 358 357 353 352 1 18 22 15 12 24 63 96 107 107 113 122 136 145 152 168 176 199 221 217 229 254 258 266 280 286 296 306 311 314 313 307 301 295 289 283 281 282 280 272 257 245 235 225 224 226 222 216 211 207 204 205 208 209 207 202 201 203 204 203 202 202 204 207 209 208 206 204 203 205
333 338 341 345 347 344 342 346 351 351 351 356 357 352 349 350 358 12 15 5 0 2 30 107 120 125 129 145 167 174 184 196 219 231 233 257 266 261 260 276 290 299 302 309 314 314 312 308 301 293 286 282 283 284 278 260 241 234 227 223 224 222 215 211 210 206 207 211 211 210 207 203 203 203 204 204 206 208 210 211 212 210 207 206 207
343 348 350 352 350 346 345 349 356 356 351 354 360 355 351 348 344 349 359 351 348 346 343 340 156 141 132 147 201 203 204 215 227 236 252 270 275 275 273 283 295 300 303 308 310 310 311 311 308 299 289 283 282 286 284 266 241 231 228 224 223 219 213 209 207 205 207 210 209 211 210 207 206 204 203 205 207 210 212 212 213 213 211 209 211
355 355 355 357 354 349 346 350 358 359 352 355 2 1 358 354 337 329 333 333 335 339 340 328 296 207 154 162 253 254 254 259 268 277 282 286 290 291 292 296 298 298 302 304 304 304 303 306 309 305 294 285 284 289 289 273 248 234 229 228 224 217 212 209 205 205 206 206 206 212 212 207 209 207 203 205 208 210 212 212 213 213 213 211 213
358 358 358 358 355 350 345 347 357 1 355 354 360 1 0 359 340 321 313 310 318 328 338 325 298 268 239 229 252 265 271 275 285 293 294 295 295 291 292 293 293 295 300 303 301 298 295 299 307 309 303 294 290 292 291 277 251 236 230 229 225 218 212 207 206 205 204 201 203 213 215 209 211 210 205 205 208 210 211 212 211 211 212 211 213
358 2 1 355 353 351 348 350 0 7 0 351 353 0 0 356 344 322 304 295 304 312 314 307 292 289 288 279 274 274 275 275 279 284 284 284 282 279 280 282 286 296 305 305 302 297 292 293 302 309 308 301 297 297 294 282 250 230 228 228 223 217 210 206 206 206 202 201 203 211 214 211 212 212 208 206 209 211 211 211 210 209 210 211 211
3 7 0 347 350 355 353 354 1 8 7 352 348 358 4 356 343 326 306 301 314 305 278 278 281 290 296 295 292 283 278 278 276 274 275 276 277 275 274 275 282 295 305 303 300 299 297 294 297 302 305 303 299 298 298 289 250 222 225 229 221 212 207 204 208 209 205 206 210 211 210 210 213 213 209 208 209 211 211 210 209 207 208 211 211
8 11 355 340 353 3 359 356 0 6 9 358 350 356 2 358 348 337 317 308 324 336 281 273 277 282 289 293 291 282 275 275 272 266 265 270 276 280 277 275 278 284 291 297 297 299 303 304 301 298 299 300 296 297 304 295 253 217 221 228 220 209 204 204 206 207 206 208 209 206 207 210 211 212 210 208 210 212 211 209 207 205 207 210 210
14 9 354 354 3 7 2 357 359 3 6 3 357 354 359 5 358 349 339 319 326 344 315 295 282 274 282 289 287 281 279 280 279 275 274 273 273 275 276 275 280 280 275 286 296 298 306 314 311 303 297 296 295 293 299 298 263 220 217 222 219 212 207 205 204 204 207 210 205 200 209 214 211 211 211 208 209 211 210 208 206 205 205 208 210
21 3 1 12 9 3 2 359 360 2 3 2 3 357 358 10 8 357 355 334 325 332 322 312 286 273 277 283 285 290 297 301 295 285 280 279 274 273 278 281 284 282 269 267 283 291 299 310 315 310 300 292 287 282 284 295 279 228 217 216 215 215 212 208 207 209 212 212 205 201 211 217 212 210 211 209 209 210 209 208 207 205 205 207 210
36 9 6 16 12 4 2 2 4 5 3 2 4 4 4 11 10 1 357 345 333 324 310 298 283 281 284 285 290 299 311 314 303 291 280 276 274 274 280 287 290 292 287 276 277 284 290 299 306 311 307 292 277 267 268 283 281 233 218 217 215 216 216 212 212 214 216 216 212 210 211 213 212 211 212 210 210 211 210 209 208 206 206 207 209
42 22 10 14 13 11 7 6 9 7 4 3 2 5 12 15 8 356 352 353 345 328 309 298 292 297 302 301 305 310 315 318 309 302 293 283 280 275 276 283 288 293 299 296 291 293 297 302 300 294 303 299 276 257 252 258 261 236 223 221 219 220 220 219 218 217 217 216 213 213 214 212 210 212 214 211 209 212 212 210 209 207 206 207 208
43 30 16 18 22 20 12 11 13 8 2 2 3 8 16 17 11 355 348 354 345 332 331 315 305 310 318 319 320 323 325 326 321 315 305 292 287 277 270 275 282 286 290 290 289 291 295 302 303 291 291 295 281 255 240 238 239 236 232 228 224 224 224 224 222 218 218 218 214 215 218 215 212 213 216 213 210 213 213 211 209 207 206 207 209
48 37 23 25 31 30 21 13 12 10 4 2 6 11 12 11 14 1 349 355 348 339 341 326 311 315 324 328 328 331 335 334 333 327 309 292 285 276 266 266 273 280 284 284 282 282 286 294 300 296 290 288 282 264 239 229 232 234 236 236 229 225 226 226 223 219 221 222 219 218 218 217 216 216 217 216 213 214 215 214 211 208 207 207 210
47 37 31 32 30 28 26 18 10 7 7 9 9 7 5 7 11 6 358 0 354 347 347 329 317 321 330 336 332 330 329 327 326 315 300 294 291 279 267 262 263 268 276 282 283 282 283 287 289 291 290 283 278 270 249 230 230 235 237 240 235 229 230 229 225 222 223 223 221 219 220 220 218 217 218 219 217 217 217 217 213 209 208 207 210
38 28 25 30 27 20 20 20 14 6 3 10 14 6 2 6 11 12 10 9 5 5 359 335 327 329 335 341 332 320 317 316 314 305 298 298 295 286 274 268 263 261 263 270 277 280 280 278 277 279 281 277 274 272 262 242 230 232 235 238 238 237 236 234 230 227 227 228 226 221 222 224 221 218 219 219 219 219 218 218 216 212 211 208 209
326 13 11 13 19 14 9 14 15 8 359 5 15 11 4 9 18 21 16 12 11 10 1 342 336 335 338 343 331 318 320 322 319 310 302 298 295 292 284 274 265 258 256 258 264 270 273 271 268 267 269 271 274 274 268 258 245 238 242 245 241 239 237 233 232 230 229 232 231 224 222 225 224 220 220 219 218 217 216 217 217 215 215 212 211
317 338 0 6 10 8 4 7 10 6 359 3 17 19 9 14 22 22 16 8 5 5 0 347 342 342 344 347 338 326 326 329 328 316 305 301 299 296 289 280 271 261 255 253 254 259 263 264 261 260 264 270 274 276 273 271 265 251 246 245 241 240 236 229 229 229 227 228 230 226 222 224 225 223 220 219 218 217 216 216 216 216 217 215 214
323 328 344 1 2 0 2 3 4 5 0 2 20 27 16 17 19 15 14 7 1 7 10 353 347 351 350 349 344 334 328 328 325 315 306 304 304 300 296 293 287 273 259 253 249 249 253 257 259 260 262 266 271 275 278 278 272 258 250 246 239 236 238 235 231 229 227 226 226 226 223 223 224 225 224 223 221 220 220 220 218 217 217 215 214
310 320 335 355 359 358 360 358 1 5 1 1 19 28 17 15 15 12 13 8 4 10 18 6 356 0 358 350 343 336 330 326 320 313 308 307 306 304 302 300 298 288 267 256 252 248 248 252 259 260 258 261 265 270 275 274 269 263 260 259 251 239 236 238 237 234 232 229 227 225 224 224 225 226 227 229 227 225 224 223 221 218 218 217 215
285 316 334 353 359 358 355 355 359 2 359 359 13 22 14 10 14 16 14 11 12 14 14 9 2 4 2 350 342 338 334 329 322 316 313 312 309 306 304 302 299 293 278 265 260 257 252 249 253 256 256 259 263 265 269 271 270 267 264 267 268 255 241 236 237 239 238 235 232 230 227 226 227 227 228 230 231 230 228 225 223 220 219 220 218
292 320 341 355 1 357 351 354 357 355 355 358 6 13 12 8 13 18 16 16 21 21 18 15 8 4 358 349 347 344 337 333 326 320 316 315 312 306 301 297 292 286 278 272 267 264 262 257 253 253 254 257 262 265 267 270 272 271 270 271 273 271 258 242 235 237 239 239 238 236 234 230 229 228 228 229 231 232 232 231 228 226 224 224 223
302 320 346 357 359 353 348 352 351 349 354 0 2 4 6 8 11 16 20 22 21 21 21 18 11 3 355 350 349 345 340 338 331 324 318 313 308 303 297 290 281 273 269 268 266 264 266 266 261 258 256 254 257 263 267 270 270 271 273 274 274 276 272 255 241 237 240 243 243 240 236 234 233 229 226 226 228 231 233 234 233 232 230 229 228
294 311 339 350 352 349 345 345 344 344 355 2 358 359 4 8 10 15 22 24 19 18 18 13 5 359 354 350 346 343 342 341 334 326 319 310 304 299 294 287 277 267 261 260 260 259 261 264 265 264 263 260 257 260 264 267 266 266 268 271 272 273 273 267 258 249 245 247 249 246 240 235 235 235 231 227 225 226 229 231 233 235 233 231 231
281 298 324 337 344 343 338 337 337 341 356 1 359 5 9 8 8 15 22 21 17 15 13 7 359 355 353 349 346 344 342 340 334 326 317 310 305 301 297 293 286 277 268 261 258 257 258 260 263 263 265 266 267 267 267 265 261 258 259 262 265 267 269 269 269 265 260 257 254 251 246 240 237 237 237 235 231 229 228 226 230 236 236 232 231
276 291 316 327 332 331 329 332 334 344 4 6 7 12 11 8 7 13 20 18 13 10 8 2 356 352 351 348 347 346 343 338 332 325 318 312 308 307 306 305 302 297 289 280 273 269 267 266 267 267 266 267 268 269 270 266 260 255 253 256 260 264 266 267 269 270 269 265 258 252 248 244 240 238 238 240 240 238 234 229 227 232 236 230 225
273 293 311 315 322 323 325 332 338 359 14 11 13 11 12 16 11 9 16 16 11 8 6 1 355 351 350 351 350 347 343 337 331 326 322 318 315 314 315 316 317 315 311 305 296 287 281 276 272 270 268 267 265 265 265 263 261 259 258 258 260 264 267 269 270 269 268 265 257 250 247 243 239 238 238 240 241 241 240 238 233 232 231 225 220
270 293 307 313 322 318 321 334 348 16 19 12 12 12 19 25 15 10 16 15 11 10 6 1 356 352 352 354 352 348 344 339 333 329 326 323 321 321 324 327 328 325 322 319 314 307 300 293 282 272 268 266 265 263 262 261 261 262 263 264 264 264 265 267 267 266 265 262 254 246 241 238 236 235 236 238 240 240 240 240 236 233 229 225 224
270 292 306 315 314 310 321 340 358 17 21 15 13 20 28 28 17 14 18 17 15 14 7 1 359 357 357 357 353 349 345 339 334 331 330 329 329 332 336 337 334 327 324 323 320 316 311 305 297 282 271 266 265 263 263 264 264 261 259 262 266 265 263 261 262 262 260 258 252 246 238 234 233 233 233 235 238 239 239 238 237 235 231 228 229
259 268 288 302 298 305 329 356 8 16 21 20 20 25 30 29 21 17 21 22 20 16 9 5 3 3 3 359 352 347 343 339 338 338 341 344 345 347 346 341 336 329 325 323 320 317 312 306 301 289 276 271 267 262 261 265 267 263 258 259 264 267 265 262 260 259 257 255 253 248 237 230 230 232 232 235 238 240 241 241 241 241 238 233 232
234 238 261 283 286 310 353 20 23 24 24 23 25 27 30 32 26 20 25 27 24 18 13 11 8 6 4 358 349 344 342 344 347 350 354 357 355 351 347 343 341 336 331 328 322 317 312 307 303 293 278 269 265 261 260 263 267 267 266 263 261 260 262 265 264 259 257 257 255 249 238 229 227 230 233 236 238 240 242 243 244 243 242 240 238
223 222 238 276 292 339 27 36 36 37 30 26 30 29 31 35 31 26 28 29 26 21 18 16 12 7 3 356 347 345 347 352 356 357 358 358 353 348 345 344 344 341 337 336 331 324 317 310 307 301 285 272 267 266 267 268 270 272 273 271 262 254 255 260 262 259 257 258 257 252 242 232 228 228 231 233 235 238 241 244 245 243 241 243 244
233 216 272 308 319 357 46 51 45 44 34 31 35 36 36 39 37 32 28 28 27 24 21 20 14 7 2 356 350 351 355 357 359 360 357 352 346 341 340 337 336 336 335 335 335 332 324 315 312 311 299 284 276 274 275 276 277 277 276 273 265 257 252 254 259 261 259 257 256 253 247 239 233 232 232 233 234 237 240 241 242 241 240 241 241
266 309 337 321 319 351 64 62 51 46 37 37 40 41 42 43 42 36 29 28 29 26 23 20 14 7 2 357 355 358 1 0 2 2 355 347 341 338 337 332 328 329 329 329 331 333 330 320 313 312 307 297 289 286 286 286 285 282 277 272 266 261 256 254 256 259 259 257 255 253 250 245 239 236 235 235 235 237 240 240 239 239 239 239 238
233 309 326 305 302 339 69 67 62 54 43 45 46 44 44 44 44 40 32 29 30 27 24 20 14 9 4 1 1 3 4 6 9 6 354 346 344 343 342 335 330 329 330 329 332 337 340 332 319 313 311 307 304 302 298 294 289 283 278 274 268 262 256 253 253 256 257 256 253 250 248 246 244 239 237 237 237 237 239 240 240 240 240 239 238
240 284 292 268 271 260 115 90 69 55 45 49 50 46 44 41 41 41 36 31 30 28 25 19 14 11 7 5 6 7 9 15 14 5 357 355 353 351 349 344 338 335 333 335 341 348 352 348 340 333 328 322 315 308 303 300 296 291 286 283 279 270 259 252 248 249 251 252 251 249 248 247 246 243 238 237 238 238 239 239 239 239 239 239 237
279 295 260 198 216 202 128 91 66 51 46 49 48 45 43 39 38 39 36 31 29 27 23 18 15 13 11 10 10 11 15 19 14 5 2 3 2 357 352 347 342 340 344 355 4 0 358 1 2 352 342 335 326 317 314 312 306 301 301 301 299 288 270 256 249 245 245 246 248 248 248 247 247 244 240 236 234 235 236 236 234 233 233 232 229
306 303 168 159 181 176 94 79 64 51 49 48 44 40 37 34 33 35 34 30 27 25 21 17 16 15 14 13 13 14 18 20 14 8 7 8 7 2 359 1 4 9 20 27 18 6 4 10 9 359 349 344 340 335 332 329 322 317 314 315 317 310 291 270 258 249 242 239 241 243 244 244 245 244 241 237 235 233 233 234 232 230 229 227 225
334 354 129 147 165 141 93 84 69 57 52 47 42 36 32 30 30 30 29 28 26 23 19 17 17 17 16 16 15 16 19 19 15 12 11 11 11 13 20 32 37 38 38 31 19 14 15 14 8 1 351 345 344 343 339 334 332 331 326 322 324 322 310 292 274 257 243 236 236 239 241 241 241 241 241 240 240 237 235 233 232 231 230 230 232
49 79 118 141 156 130 105 99 72 55 49 44 39 35 31 28 27 25 24 25 25 22 18 18 19 18 17 17 18 18 19 19 16 15 16 15 18 27 41 49 45 38 32 25 22 20 17 15 11 4 357 353 350 347 343 339 336 334 330 327 326 324 318 307 292 273 255 243 237 237 239 239 239 240 241 243 243 243 241 238 235 232 231 231 235
81 105 134 149 161 139 110 100 70 47 39 37 34 32 31 28 25 23 21 21 22 21 19 19 19 19 19 19 19 21 22 20 16 16 18 20 24 35 49 52 45 37 29 20 17 15 13 13 11 7 5 1 355 353 353 351 346 339 334 330 323 315 309 304 298 290 276 261 246 239 237 236 236 238 240 242 243 243 243 242 241 239 234 230 232
Height
3175 3174 3173 3172 3170 3169 3167 3165 3164 3162 3160 3158 3157 3155 3154 3152 3151 3149 3147 3145 3143 3142 3140 3138 3137 3136 3137 3137 3139 3140 3141 3142 3142 3144 3144 3143 3144 3144 3144 3145 3144 3144 3145 3145 3145 3145 3145 3145 3145 3145 3146 3146 3146 3146 3147 3147 3147 3149 3151 3153 3154 3156 3157 3159 3161 3163 3164 3165 3166 3168 3169 3171 3173 3175 3177 3179 3181 3183 3184 3186 3188 3191 3193 3194 3195
3174 3173 3172 3171 3169 3167 3166 3164 3163 3161 3159 3158 3156 3154 3152 3151 3149 3147 3145 3143 3142 3140 3138 3136 3135 3134 3135 3136 3137 3138 3140 3141 3141 3142 3143 3143 3144 3144 3144 3144 3144 3144 3144 3144 3145 3145 3144 3144 3144 3145 3145 3145 3145 3144 3145 3145 3145 3147 3149 3151 3152 3154 3156 3157 3158 3162 3163 3164 3165 3167 3168 3170 3172 3174 3176 3178 3180 3182 3183 3185 3187 3190 3192 3193 3194
3173 3172 3171 3170 3168 3166 3165 3163 3162 3160 3158 3157 3155 3153 3151 3149 3148 3146 3144 3143 3140 3138 3137 3136 3135 3134 3134 3135 3136 3137 3138 3139 3140 3141 3143 3143 3144 3144 3144 3144 3144 3143 3144 3144 3144 3144 3144 3143 3143 3144 3144 3144 3144 3143 3143 3144 3144 3145 3147 3150 3151 3152 3154 3155 3156 3159 3161 3162 3163 3165 3167 3168 3170 3172 3174 3176 3178 3181 3183 3184 3186 3188 3190 3192 3193
3173 3172 3170 3168 3166 3165 3163 3162 3161 3159 3157 3156 3154 3152 3150 3148 3147 3145 3144 3142 3140 3138 3136 3135 3135 3134 3134 3134 3135 3136 3137 3138 3139 3141 3142 3143 3144 3144 3144 3144 3143 3143 3143 3144 3143 3143 3142 3142 3142 3143 3142 3142 3142 3142 3142 3143 3143 3143 3145 3147 3149 3150 3151 3153 3154 3156 3158 3160 3161 3163 3165 3167 3169 3171 3173 3175 3177 3179 3182 3183 3185 3187 3189 3191 3192
3172 3170 3169 3167 3166 3164 3162 3161 3160 3158 3156 3155 3153 3151 3150 3148 3146 3145 3143 3142 3140 3138 3136 3135 3135 3134 3134 3134 3135 3136 3137 3138 3139 3141 3142 3143 3144 3144 3144 3143 3142 3142 3143 3143 3142 3142 3141 3141 3141 3141 3140 3139 3139 3140 3140 3141 3142 3142 3142 3144 3147 3148 3149 3150 3152 3154 3156 3158 3159 3161 3163 3165 3168 3170 3171 3174 3176 3178 3180 3182 3184 3186 3188 3190 3192
3171 3169 3168 3167 3165 3163 3162 3160 3159 3157 3156 3154 3152 3151 3149 3148 3146 3145 3143 3141 3140 3138 3137 3136 3136 3136 3136 3136 3136 3137 3137 3139 3140 3142 3142 3143 3143 3143 3143 3142 3142 3142 3142 3142 3141 3141 3140 3140 3140 3140 3140 3138 3138 3138 3138 3139 3139 3140 3140 3142 3144 3145 3146 3148 3149 3152 3154 3156 3157 3159 3161 3163 3166 3168 3170 3172 3174 3177 3179 3181 3183 3185 3187 3189 3191
3170 3168 3167 3166 3164 3163 3161 3160 3158 3157 3155 3154 3152 3151 3149 3148 3146 3145 3143 3142 3140 3139 3138 3137 3137 3137 3137 3137 3138 3138 3139 3140 3141 3142 3142 3142 3142 3142 3142 3142 3141 3141 3141 3141 3140 3140 3139 3139 3139 3138 3138 3137 3136 3136 3136 3137 3138 3138 3139 3139 3140 3142 3144 3145 3146 3149 3152 3153 3155 3157 3159 3161 3164 3166 3168 3171 3173 3175 3178 3180 3182 3183 3185 3188 3190
3169 3168 3166 3165 3163 3162 3161 3159 3158 3156 3155 3153 3152 3150 3149 3148 3147 3145 3143 3142 3141 3140 3139 3138 3138 3138 3138 3138 3139 3139 3140 3141 3142 3142 3142 3142 3142 3142 3142 3141 3141 3141 3141 3140 3140 3139 3138 3138 3137 3137 3136 3135 3135 3134 3133 3134 3136 3137 3137 3136 3137 3139 3141 3142 3144 3147 3150 3151 3153 3154 3157 3159 3162 3165 3167 3169 3172 3174 3176 3178 3180 3182 3184 3186 3189
3168 3167 3165 3164 3163 3162 3161 3159 3157 3156 3154 3153 3152 3150 3149 3148 3147 3146 3144 3143 3142 3141 3140 3139 3139 3139 3139 3139 3140 3140 3141 3142 3142 3142 3142 3142 3142 3142 3142 3141 3141 3140 3140 3139 3139 3138 3137 3137 3136 3135 3135 3134 3134 3133 3131 3130 3132 3135 3135 3133 3134 3137 3138 3139 3142 3145 3147 3149 3151 3152 3155 3158 3160 3163 3165 3168 3170 3173 3175 3177 3179 3181 3183 3185 3188
3167 3166 3165 3164 3163 3162 3160 3159 3157 3156 3154 3153 3151 3150 3149 3148 3147 3146 3145 3144 3143 3142 3141 3140 3140 3140 3140 3140 3141 3141 3141 3142 3142 3142 3142 3142 3141 3141 3141 3140 3140 3140 3139 3138 3138 3137 3136 3136 3135 3134 3133 3133 3132 3131 3130 3129 3129 3131 3132 3131 3132 3134 3135 3137 3140 3142 3144 3147 3148 3150 3153 3156 3158 3161 3164 3166 3169 3171 3174 3176 3178 3180 3182 3184 3186
3167 3166 3165 3164 3163 3162 3160 3159 3158 3156 3154 3152 3151 3150 3149 3148 3147 3146 3146 3145 3144 3143 3142 3141 3141 3141 3141 3141 3141 3141 3141 3141 3141 3141 3141 3141 3141 3141 3140 3140 3139 3139 3138 3137 3137 3136 3135 3134 3134 3133 3132 3131 3130 3129 3128 3128 3127 3128 3129 3129 3130 3131 3133 3136 3138 3139 3142 3145 3147 3149 3151 3154 3156 3159 3162 3165 3167 3170 3172 3175 3177 3179 3180 3182 3185
3167 3166 3165 3164 3163 3162 3160 3159 3158 3156 3154 3153 3151 3150 3149 3148 3147 3146 3145 3145 3144 3144 3143 3142 3141 3141 3141 3141 3141 3141 3141 3141 3141 3141 3141 3140 3140 3140 3140 3139 3138 3138 3137 3137 3136 3135 3134 3133 3132 3131 3130 3130 3128 3127 3126 3126 3126 3126 3127 3127 3128 3130 3132 3135 3137 3139 3143 3145 3147 3149 3150 3153 3154 3157 3160 3163 3166 3168 3171 3173 3176 3177 3179 3181 3183
3167 3166 3165 3164 3163 3162 3161 3159 3158 3156 3154 3153 3152 3150 3149 3148 3147 3146 3145 3145 3144 3144 3144 3143 3142 3141 3141 3141 3141 3141 3141 3141 3141 3141 3141 3140 3139 3139 3139 3138 3137 3137 3136 3136 3135 3134 3133 3132 3130 3129 3129 3128 3127 3126 3125 3124 3124 3124 3125 3125 3126 3128 3130 3133 3136 3139 3142 3143 3145 3147 3150 3152 3153 3154 3157 3160 3164 3166 3169 3171 3173 3176 3178 3180 3182
3167 3166 3165 3164 3163 3162 3160 3159 3158 3156 3154 3153 3151 3150 3149 3148 3146 3145 3145 3145 3144 3144 3144 3143 3142 3141 3141 3141 3141 3141 3141 3140 3140 3140 3140 3139 3138 3137 3137 3137 3136 3136 3135 3134 3133 3133 3131 3130 3129 3128 3127 3127 3126 3125 3124 3123 3122 3122 3123 3123 3124 3126 3128 3130 3133 3137 3139 3141 3144 3146 3148 3150 3152 3153 3155 3158 3161 3164 3166 3169 3171 3174 3176 3178 3180
3167 3166 3165 3164 3163 3162 3160 3159 3158 3156 3154 3152 3151 3150 3149 3148 3146 3145 3145 3144 3144 3144 3143 3143 3142 3141 3141 3140 3140 3140 3140 3140 3139 3139 3138 3138 3137 3136 3136 3135 3135 3134 3133 3132 3132 3131 3130 3129 3128 3127 3126 3126 3124 3123 3122 3122 3122 3121 3121 3122 3122 3124 3126 3129 3133 3136 3137 3139 3142 3145 3148 3150 3151 3152 3154 3156 3159 3161 3164 3166 3169 3172 3174 3176 3178
3167 3166 3165 3164 3163 3162 3160 3159 3158 3156 3154 3152 3150 3149 3148 3147 3146 3145 3144 3144 3144 3144 3143 3143 3142 3141 3141 3141 3140 3140 3140 3140 3139 3138 3137 3137 3136 3136 3135 3134 3133 3133 3132 3131 3130 3129 3128 3128 3127 3126 3125 3124 3124 3123 3121 3121 3121 3120 3120 3121 3122 3123 3126 3130 3132 3134 3135 3138 3141 3143 3146 3148 3150 3151 3153 3154 3157 3159 3162 3164 3167 3169 3172 3174 3176
3167 3166 3165 3164 3163 3162 3160 3159 3157 3156 3154 3152 3150 3149 3148 3146 3145 3144 3143 3143 3143 3143 3143 3142 3142 3141 3141 3141 3140 3140 3139 3139 3139 3138 3137 3136 3135 3134 3134 3133 3132 3131 3131 3129 3128 3128 3127 3126 3126 3125 3124 3123 3123 3122 3121 3120 3120 3120 3119 3120 3122 3124 3126 3129 3130 3131 3134 3137 3140 3142 3144 3146 3148 3149 3150 3152 3154 3157 3159 3162 3165 3167 3170 3172 3174
3167 3166 3165 3164 3164 3162 3160 3158 3157 3155 3154 3152 3149 3148 3147 3146 3145 3144 3143 3142 3142 3143 3142 3142 3142 3141 3140 3140 3139 3139 3138 3137 3137 3137 3136 3135 3134 3133 3132 3131 3131 3130 3130 3128 3127 3126 3125 3125 3124 3123 3123 3122 3122 3121 3120 3119 3119 3119 3119 3120 3122 3124 3126 3128 3129 3131 3133 3136 3138 3140 3142 3143 3145 3147 3148 3150 3152 3155 3158 3160 3162 3165 3167 3170 3172
3167 3166 3165 3164 3163 3162 3160 3158 3156 3154 3153 3151 3150 3148 3147 3146 3145 3144 3143 3143 3142 3142 3142 3141 3141 3140 3139 3139 3138 3138 3137 3136 3136 3135 3135 3134 3133 3132 3130 3130 3130 3129 3129 3127 3126 3125 3124 3123 3122 3122 3121 3121 3121 3120 3119 3118 3118 3119 3119 3119 3121 3122 3125 3127 3129 3131 3134 3135 3136 3138 3140 3142 3143 3145 3146 3147 3149 3152 3155 3158 3160 3162 3165 3168 3170
3168 3167 3166 3165 3163 3161 3160 3158 3155 3154 3152 3151 3150 3148 3147 3146 3145 3144 3144 3143 3142 3142 3141 3141 3140 3139 3139 3138 3137 3137 3136 3136 3135 3135 3134 3133 3132 3131 3129 3129 3129 3129 3128 3127 3125 3124 3123 3122 3121 3120 3120 3120 3119 3119 3119 3118 3118 3118 3119 3119 3120 3121 3124 3126 3128 3131 3133 3135 3135 3136 3139 3141 3142 3143 3144 3145 3147 3150 3153 3155 3157 3160 3162 3165 3168
3168 3167 3165 3164 3163 3161 3159 3157 3155 3153 3152 3150 3149 3148 3147 3146 3145 3145 3144 3143 3142 3141 3141 3140 3140 3139 3139 3138 3137 3137 3136 3136 3135 3134 3134 3133 3132 3131 3129 3129 3128 3128 3127 3126 3124 3123 3122 3121 3120 3119 3119 3118 3118 3118 3118 3118 3118 3118 3118 3119 3120 3121 3123 3125 3127 3129 3132 3134 3134 3135 3137 3138 3139 3141 3142 3142 3144 3147 3150 3152 3155 3157 3159 3162 3165
3168 3166 3165 3164 3162 3161 3159 3157 3155 3153 3151 3150 3149 3148 3147 3146 3146 3145 3144 3144 3143 3142 3141 3140 3140 3139 3139 3138 3137 3137 3137 3136 3135 3134 3133 3132 3131 3131 3129 3128 3127 3127 3126 3125 3124 3122 3121 3120 3120 3119 3118 3117 3117 3117 3117 3117 3117 3117 3118 3118 3119 3121 3122 3124 3126 3127 3129 3131 3132 3134 3136 3136 3136 3138 3139 3140 3143 3145 3148 3150 3152 3154 3156 3159 3162
3167 3166 3165 3163 3162 3161 3159 3157 3155 3153 3152 3151 3150 3149 3148 3146 3146 3145 3145 3144 3144 3143 3142 3141 3140 3139 3139 3138 3137 3137 3137 3136 3135 3133 3132 3131 3130 3130 3128 3126 3125 3125 3125 3124 3123 3122 3120 3120 3119 3118 3117 3116 3115 3116 3116 3116 3117 3117 3117 3118 3119 3120 3121 3122 3124 3125 3126 3128 3130 3132 3133 3134 3134 3136 3138 3140 3142 3144 3146 3148 3150 3151 3154 3157 3159
3167 3166 3165 3163 3162 3161 3159 3157 3155 3154 3153 3151 3150 3149 3148 3147 3146 3145 3145 3144 3144 3143 3142 3141 3140 3139 3138 3138 3136 3136 3135 3135 3134 3133 3131 3130 3129 3129 3127 3125 3124 3123 3122 3122 3122 3121 3120 3119 3118 3118 3117 3115 3114 3114 3114 3115 3115 3116 3116 3117 3117 3118 3119 3120 3121 3122 3124 3125 3126 3128 3130 3131 3131 3134 3136 3138 3140 3142 3144 3147 3149 3149 3151 3154 3157
3166 3166 3165 3163 3162 3161 3159 3158 3156 3154 3153 3152 3150 3149 3148 3147 3146 3145 3145 3144 3144 3143 3142 3141 3140 3139 3138 3137 3136 3135 3134 3133 3132 3131 3130 3129 3128 3128 3126 3125 3124 3122 3121 3119 3118 3119 3119 3118 3117 3116 3115 3113 3112 3112 3113 3114 3114 3115 3115 3115 3115 3116 3117 3118 3119 3120 3121 3122 3123 3125 3127 3128 3129 3131 3134 3136 3138 3141 3143 3146 3147 3148 3148 3150 3153
3165 3165 3165 3164 3163 3161 3160 3158 3157 3154 3153 3152 3150 3149 3148 3147 3146 3145 3145 3144 3143 3143 3142 3141 3140 3139 3138 3137 3136 3135 3133 3132 3131 3130 3129 3127 3126 3126 3125 3124 3123 3122 3121 3119 3116 3116 3118 3117 3116 3115 3113 3111 3111 3111 3111 3112 3113 3113 3114 3114 3114 3114 3115 3115 3116 3118 3120 3120 3121 3124 3125 3126 3127 3129 3131 3134 3136 3139 3142 3144 3146 3146 3146 3147 3149
3166 3165 3164 3163 3162 3161 3160 3159 3157 3155 3153 3152 3151 3149 3148 3147 3147 3146 3145 3144 3143 3143 3142 3141 3140 3139 3138 3137 3136 3134 3133 3132 3131 3129 3128 3127 3125 3125 3125 3124 3123 3121 3120 3119 3116 3115 3115 3115 3114 3113 3111 3109 3110 3110 3110 3110 3111 3113 3114 3113 3112 3113 3113 3113 3114 3115 3117 3118 3120 3122 3123 3124 3125 3127 3129 3131 3134 3136 3139 3141 3143 3145 3145 3146 3148
3167 3166 3165 3163 3162 3161 3160 3159 3157 3155 3153 3152 3151 3150 3148 3148 3147 3146 3145 3144 3143 3143 3142 3141 3140 3138 3137 3137 3136 3134 3132 3131 3130 3129 3127 3126 3125 3124 3124 3123 3122 3120 3119 3118 3116 3114 3113 3112 3111 3111 3110 3108 3108 3109 3109 3109 3110 3112 3113 3111 3111 3111 3111 3111 3111 3112 3114 3115 3116 3118 3120 3121 3123 3124 3126 3128 3130 3133 3135 3136 3139 3142 3144 3145 3147
3166 3166 3165 3163 3162 3161 3160 3158 3157 3155 3153 3152 3151 3150 3149 3148 3147 3146 3146 3144 3143 3143 3142 3141 3139 3138 3137 3136 3135 3134 3132 3130 3129 3127 3125 3124 3123 3122 3122 3122 3121 3120 3118 3116 3114 3112 3111 3109 3108 3109 3109 3108 3107 3107 3108 3110 3110 3109 3109 3109 3109 3110 3110 3110 3109 3110 3111 3112 3113 3115 3116 3118 3120 3121 3123 3124 3127 3130 3131 3132 3135 3139 3142 3143 3146
3166 3166 3165 3163 3162 3160 3159 3158 3157 3155 3154 3152 3152 3151 3149 3148 3147 3147 3146 3144 3143 3143 3142 3141 3139 3138 3137 3136 3134 3133 3131 3129 3127 3125 3123 3121 3120 3119 3118 3118 3118 3118 3117 3115 3113 3111 3110 3109 3107 3108 3108 3107 3106 3106 3107 3108 3109 3109 3108 3108 3109 3109 3109 3109 3109 3109 3110 3110 3111 3112 3113 3115 3116 3118 3120 3121 3124 3126 3128 3130 3133 3136 3139 3140 3142
3166 3166 3165 3163 3162 3160 3159 3157 3156 3155 3154 3152 3152 3151 3150 3149 3148 3147 3146 3144 3144 3143 3141 3140 3139 3138 3137 3135 3133 3132 3130 3128 3125 3123 3121 3119 3117 3116 3115 3114 3114 3114 3114 3113 3111 3110 3109 3108 3107 3107 3107 3106 3105 3105 3105 3106 3107 3107 3107 3107 3108 3108 3108 3108 3109 3109 3108 3108 3109 3110 3112 3113 3114 3115 3116 3118 3120 3123 3126 3128 3130 3132 3134 3136 3139
3166 3165 3165 3163 3162 3160 3159 3157 3156 3155 3154 3152 3151 3151 3150 3149 3148 3147 3146 3145 3144 3143 3142 3140 3139 3138 3136 3134 3132 3131 3129 3127 3124 3121 3119 3116 3115 3113 3112 3111 3110 3110 3110 3110 3109 3108 3107 3107 3106 3106 3106 3105 3104 3104 3104 3104 3104 3104 3104 3104 3105 3106 3107 3108 3108 3108 3108 3108 3108 3109 3110 3112 3112 3113 3113 3114 3116 3118 3121 3123 3126 3128 3130 3132 3136
3165 3164 3164 3163 3162 3160 3159 3157 3156 3155 3154 3152 3151 3151 3150 3149 3148 3147 3146 3145 3144 3143 3142 3140 3139 3137 3135 3133 3131 3129 3127 3125 3122 3120 3117 3115 3113 3111 3110 3109 3108 3107 3107 3107 3106 3106 3104 3104 3104 3104 3104 3104 3103 3103 3102 3102 3102 3102 3101 3101 3102 3102 3104 3106 3106 3107 3107 3107 3107 3108 3109 3111 3112 3112 3111 3112 3113 3115 3117 3118 3121 3124 3126 3130 3133
3164 3164 3164 3163 3162 3160 3158 3157 3156 3155 3154 3153 3152 3151 3150 3149 3148 3147 3146 3145 3143 3142 3141 3140 3138 3136 3134 3132 3130 3128 3125 3123 3120 3118 3116 3113 3111 3109 3107 3106 3105 3104 3104 3104 3104 3103 3102 3101 3101 3100 3100 3101 3101 3101 3100 3100 3100 3099 3098 3098 3099 3099 3100 3102 3103 3104 3106 3107 3107 3107 3108 3109 3110 3111 3111 3111 3111 3113 3115 3116 3118 3119 3122 3125 3128
3163 3164 3163 3162 3161 3160 3158 3157 3157 3155 3154 3153 3152 3151 3150 3149 3147 3146 3145 3144 3143 3142 3141 3139 3137 3135 3134 3131 3129 3126 3123 3121 3118 3116 3114 3111 3109 3107 3105 3103 3102 3101 3101 3101 3101 3101 3100 3099 3098 3098 3098 3098 3098 3098 3097 3097 3097 3097 3096 3095 3095 3096 3097 3098 3099 3100 3102 3104 3105 3105 3106 3107 3108 3109 3110 3110 3110 3111 3112 3113 3115 3116 3118 3121 3124
3163 3163 3163 3162 3161 3160 3158 3158 3157 3155 3154 3153 3152 3151 3150 3149 3147 3146 3145 3144 3143 3142 3140 3138 3136 3134 3133 3130 3127 3124 3121 3119 3117 3114 3112 3110 3108 3106 3104 3102 3101 3100 3099 3099 3098 3098 3097 3097 3096 3095 3095 3095 3095 3094 3094 3093 3093 3093 3093 3093 3092 3093 3094 3095 3096 3096 3098 3099 3101 3103 3104 3104 3105 3106 3108 3109 3109 3110 3111 3112 3113 3115 3116 3118 3121
3162 3163 3163 3162 3161 3159 3158 3157 3156 3155 3154 3153 3152 3151 3150 3149 3147 3146 3145 3144 3142 3141 3139 3137 3135 3133 3131 3128 3125 3122 3119 3117 3115 3113 3111 3109 3107 3105 3103 3102 3100 3099 3098 3097 3096 3096 3095 3095 3094 3093 3092 3092 3091 3091 3091 3090 3090 3090 3090 3090 3090 3090 3091 3092 3092 3092 3093 3095 3096 3099 3100 3101 3102 3104 3105 3106 3107 3108 3110 3111 3113 3113 3114 3116 3118
3162 3162 3162 3161 3160 3159 3157 3157 3156 3154 3153 3152 3152 3151 3150 3149 3147 3146 3145 3144 3142 3140 3138 3136 3135 3133 3130 3126 3123 3120 3118 3116 3114 3112 3110 3108 3107 3105 3103 3102 3100 3098 3097 3095 3094 3094 3093 3093 3092 3091 3090 3089 3089 3089 3088 3088 3087 3087 3087 3087 3087 3088 3088 3088 3088 3088 3089 3090 3091 3094 3096 3097 3098 3100 3102 3103 3104 3105 3108 3110 3112 3112 3112 3114 3117
3162 3161 3161 3160 3159 3158 3157 3156 3155 3154 3153 3153 3152 3151 3150 3149 3147 3146 3145 3143 3141 3139 3137 3136 3134 3131 3128 3124 3122 3120 3118 3116 3114 3112 3110 3108 3106 3104 3103 3101 3100 3098 3096 3095 3093 3092 3092 3091 3090 3089 3088 3088 3088 3087 3087 3086 3085 3085 3085 3085 3085 3085 3085 3085 3085 3085 3085 3086 3087 3090 3093 3094 3095 3097 3098 3099 3101 3103 3105 3108 3109 3110 3111 3114 3115
3161 3161 3160 3160 3159 3158 3157 3156 3155 3154 3154 3153 3152 3151 3150 3149 3147 3146 3145 3143 3141 3139 3138 3136 3133 3129 3126 3123 3121 3119 3117 3115 3112 3110 3108 3107 3105 3103 3102 3100 3098 3097 3095 3094 3092 3091 3090 3089 3088 3088 3087 3086 3086 3086 3085 3084 3084 3084 3084 3084 3084 3083 3083 3082 3082 3083 3083 3083 3084 3086 3089 3091 3092 3094 3095 3097 3098 3100 3103 3105 3107 3109 3110 3112 3114
3160 3160 3159 3159 3158 3157 3157 3156 3155 3154 3154 3153 3152 3151 3150 3149 3148 3146 3144 3143 3141 3139 3138 3135 3131 3128 3126 3124 3121 3119 3116 3113 3110 3108 3106 3105 3103 3101 3100 3098 3097 3095 3094 3092 3091 3090 3089 3088 3087 3086 3086 3085 3085 3085 3084 3083 3083 3082 3082 3082 3082 3082 3081 3080 3081 3081 3081 3082 3082 3083 3085 3088 3090 3091 3093 3094 3096 3098 3100 3102 3105 3107 3108 3110 3111
3159 3159 3159 3158 3157 3157 3156 3156 3155 3155 3154 3153 3153 3152 3150 3149 3148 3146 3144 3143 3141 3139 3137 3134 3131 3128 3126 3124 3121 3118 3115 3111 3109 3107 3105 3103 3102 3100 3098 3097 3095 3094 3093 3091 3090 3089 3088 3087 3086 3085 3085 3084 3084 3083 3082 3082 3081 3081 3081 3081 3081 3081 3080 3079 3079 3080 3080 3080 3080 3081 3083 3085 3087 3089 3090 3092 3093 3095 3097 3099 3102 3104 3106 3107 3109
3158 3158 3158 3157 3157 3156 3156 3156 3156 3155 3154 3154 3153 3152 3151 3149 3148 3146 3145 3143 3141 3139 3136 3133 3131 3129 3127 3124 3121 3117 3113 3110 3108 3106 3104 3103 3101 3099 3097 3096 3094 3093 3092 3091 3089 3088 3086 3085 3085 3084 3084 3083 3082 3082 3081 3080 3080 3079 3079 3079 3079 3079 3079 3078 3078 3078 3079 3079 3079 3080 3081 3082 3084 3086 3087 3089 3090 3092 3095 3097 3099 3101 3103 3104 3106
3157 3158 3158 3157 3156 3156 3156 3156 3156 3155 3155 3154 3153 3152 3151 3150 3148 3147 3145 3143 3141 3138 3136 3133 3132 3130 3127 3124 3120 3116 3113 3110 3108 3106 3104 3102 3100 3098 3096 3095 3093 3092 3091 3089 3088 3087 3085 3084 3083 3083 3082 3082 3081 3080 3080 3079 3079 3078 3077 3077 3077 3077 3077 3077 3076 3076 3076 3077 3078 3078 3079 3080 3081 3083 3085 3086 3088 3090 3092 3094 3096 3098 3099 3101 3103
3157 3158 3158 3157 3156 3156 3156 3156 3156 3155 3155 3154 3153 3152 3151 3150 3148 3147 3145 3143 3141 3138 3136 3134 3132 3130 3127 3123 3119 3116 3113 3110 3108 3106 3104 3102 3100 3098 3096 3094 3092 3091 3090 3089 3087 3086 3084 3083 3082 3082 3081 3081 3080 3079 3079 3078 3077 3077 3076 3076 3075 3075 3075 3075 3075 3074 3074 3075 3076 3076 3077 3078 3079 3080 3082 3083 3085 3087 3089 3091 3093 3095 3096 3098 3100
3158 3158 3158 3157 3156 3156 3157 3156 3156 3155 3155 3154 3153 3152 3151 3150 3149 3147 3145 3143 3141 3139 3137 3135 3133 3130 3127 3123 3119 3116 3113 3111 3108 3106 3104 3102 3099 3097 3095 3093 3091 3090 3089 3087 3086 3085 3083 3082 3081 3081 3081 3080 3079 3078 3078 3077 3076 3075 3075 3074 3074 3073 3072 3072 3072 3072 3072 3073 3074 3074 3075 3076 3077 3078 3080 3081 3082 3084 3086 3088 3090 3092 3093 3095 3097
3157 3158 3158 3157 3156 3157 3157 3156 3155 3155 3155 3154 3153 3152 3151 3150 3149 3147 3145 3142 3141 3139 3137 3135 3133 3130 3127 3123 3119 3116 3113 3111 3109 3106 3104 3101 3099 3097 3095 3093 3091 3089 3088 3087 3085 3084 3083 3082 3081 3081 3080 3080 3079 3078 3077 3076 3075 3075 3074 3073 3072 3071 3070 3070 3070 3070 3071 3071 3072 3073 3073 3073 3074 3076 3077 3078 3080 3081 3083 3085 3087 3089 3091 3092 3094
3157 3157 3157 3157 3157 3157 3157 3156 3156 3156 3155 3154 3153 3152 3151 3150 3148 3146 3144 3143 3141 3139 3138 3135 3133 3130 3126 3123 3119 3116 3113 3111 3109 3107 3104 3101 3099 3096 3094 3092 3091 3089 3088 3087 3086 3085 3084 3083 3082 3081 3080 3080 3079 3078 3077 3076 3075 3074 3073 3072 3071 3070 3069 3069 3069 3069 3069 3070 3070 3071 3071 3071 3072 3073 3075 3076 3077 3079 3080 3082 3084 3086 3088 3090 3092
3157 3157 3157 3157 3157 3157 3157 3156 3156 3156 3155 3154 3153 3152 3151 3149 3147 3146 3145 3144 3142 3140 3138 3136 3132 3129 3126 3123 3119 3116 3114 3111 3109 3107 3104 3101 3099 3096 3094 3092 3091 3090 3089 3087 3086 3085 3084 3083 3083 3082 3081 3080 3079 3078 3077 3075 3074 3073 3072 3072 3071 3070 3069 3069 3068 3068 3068 3069 3069 3069 3069 3070 3070 3071 3073 3074 3075 3076 3078 3079 3081 3083 3085 3087 3089
3157 3157 3157 3157 3157 3157 3157 3156 3156 3155 3155 3154 3153 3152 3151 3149 3148 3146 3145 3144 3142 3140 3138 3135 3132 3129 3126 3123 3120 3117 3114 3112 3110 3107 3104 3102 3099 3096 3094 3093 3092 3091 3090 3089 3087 3086 3085 3084 3083 3082 3081 3080 3079 3078 3077 3075 3074 3073 3072 3071 3070 3070 3069 3069 3068 3068 3068 3068 3068 3068 3068 3068 3069 3070 3071 3072 3072 3074 3075 3077 3078 3080 3082 3084 3085
3156 3156 3156 3157 3156 3156 3156 3156 3155 3155 3154 3154 3153 3152 3151 3150 3148 3147 3146 3144 3142 3141 3138 3135 3132 3130 3127 3124 3121 3118 3115 3112 3110 3108 3105 3102 3100 3098 3096 3094 3093 3092 3091 3090 3088 3087 3086 3085 3084 3082 3081 3080 3079 3078 3076 3075 3074 3073 3072 3071 3070 3069 3069 3068 3068 3067 3067 3067 3067 3067 3067 3067 3068 3068 3069 3070 3070 3071 3072 3074 3075 3077 3079 3081 3083